| time (UTC) | temp F | wind direction | speed MPH | gust MPH | rain 1hr in | rain 24hr in | rain mn in | humidity % | barometer mb |
| 20260505025022 | 56 | 38 | 5.0 | 12.0 | 0.00 | 0.00 | 0.00 | 39 | 1001.2 |
| 20260505024523 | 56 | 355 | 4.0 | 12.0 | 0.00 | 0.00 | 0.00 | 39 | 1001.2 |
| 20260505024022 | 56 | 342 | 4.0 | 12.0 | 0.00 | 0.00 | 0.00 | 39 | 1001.2 |
| 20260505023744 | 56 | 337 | 3.0 | 12.0 | 0.00 | 0.00 | 0.00 | 38 | 1001.3 |
| 20260505023023 | 56 | 36 | 4.0 | 12.0 | 0.00 | 0.00 | 0.00 | 38 | 1001.3 |
| 20260505023018 | 56 | 26 | 5.0 | 11.0 | 0.00 | 0.00 | 0.00 | 37 | 1001.4 |
| 20260505022018 | 56 | 0 | 4.0 | 14.0 | 0.00 | 0.00 | 0.00 | 37 | 1000.9 |
| 20260505021519 | 56 | 34 | 5.0 | 14.0 | 0.00 | 0.00 | 0.00 | 36 | 1000.9 |
| 20260505021018 | 57 | 348 | 6.0 | 12.0 | 0.00 | 0.00 | 0.00 | 35 | 1000.9 |
| 20260505020520 | 57 | 0 | 6.0 | 20.0 | 0.00 | 0.00 | 0.00 | 35 | 1000.4 |
| 20260505020019 | 57 | 348 | 7.0 | 20.0 | 0.00 | 0.00 | 0.00 | 35 | 1000.5 |
| 20260505015519 | 57 | 15 | 7.0 | 19.0 | 0.00 | 0.00 | 0.00 | 34 | 1000.5 |
| 20260505015013 | 58 | 12 | 6.0 | 19.0 | 0.00 | 0.00 | 0.00 | 34 | 1000.7 |
| 20260505014502 | 58 | 11 | 5.0 | 15.0 | 0.00 | 0.00 | 0.00 | 35 | 1000.7 |
| 20260505014207 | 58 | 15 | 6.0 | 20.0 | 0.00 | 0.00 | 0.00 | 35 | 1000.8 |
| 20260505013445 | 58 | 37 | 6.0 | 20.0 | 0.00 | 0.00 | 0.00 | 35 | 1000.5 |
| 20260505012944 | 59 | 5 | 6.0 | 15.0 | 0.00 | 0.00 | 0.00 | 34 | 1000.5 |
| 20260505012444 | 59 | 343 | 6.0 | 15.0 | 0.00 | 0.00 | 0.00 | 34 | 1000.6 |
| 20260505011944 | 60 | 0 | 7.0 | 18.0 | 0.00 | 0.00 | 0.00 | 32 | 999.5 |
| 20260505011658 | 61 | 27 | 7.0 | 18.0 | 0.00 | 0.00 | 0.00 | 30 | 999.6 |
| 20260505010945 | 62 | 36 | 7.0 | 16.0 | 0.00 | 0.00 | 0.00 | 28 | 999.7 |
| 20260505010442 | 62 | 0 | 7.0 | 18.0 | 0.00 | 0.00 | 0.00 | 28 | 999.8 |
| 20260505010206 | 63 | 30 | 7.0 | 18.0 | 0.00 | 0.00 | 0.00 | 28 | 999.9 |
| 20260505005442 | 63 | 13 | 7.0 | 17.0 | 0.00 | 0.00 | 0.00 | 27 | 999.9 |
| 20260505004937 | 64 | 17 | 6.0 | 18.0 | 0.00 | 0.00 | 0.00 | 27 | 999.5 |
| 20260505004425 | 65 | 38 | 5.0 | 18.0 | 0.00 | 0.00 | 0.00 | 28 | 999.5 |
| 20260505003913 | 65 | 342 | 6.0 | 18.0 | 0.00 | 0.00 | 0.00 | 27 | 999.6 |
| 20260505003407 | 66 | 342 | 6.0 | 18.0 | 0.00 | 0.00 | 0.00 | 28 | 999.1 |
| 20260505002907 | 66 | 18 | 6.0 | 17.0 | 0.00 | 0.00 | 0.00 | 26 | 999.1 |
| 20260505002407 | 66 | 27 | 5.0 | 15.0 | 0.00 | 0.00 | 0.00 | 26 | 999.2 |
| 20260505001906 | 67 | 25 | 5.0 | 19.0 | 0.00 | 0.00 | 0.00 | 26 | 998.8 |
| 20260505001406 | 68 | 343 | 6.0 | 19.0 | 0.00 | 0.00 | 0.00 | 26 | 998.8 |
| 20260505000906 | 69 | 44 | 7.0 | 17.0 | 0.00 | 0.00 | 0.00 | 26 | 998.9 |
| 20260505000408 | 69 | 334 | 6.0 | 17.0 | 0.00 | 0.00 | 0.00 | 25 | 998.8 |
| 20260504235905 | 70 | 0 | 4.0 | 13.0 | 0.00 | 0.00 | 0.00 | 25 | 998.9 |
| 20260504235406 | 70 | 344 | 5.0 | 13.0 | 0.00 | 0.00 | 0.00 | 25 | 998.9 |
| 20260504234904 | 70 | 10 | 5.0 | 14.0 | 0.00 | 0.00 | 0.00 | 25 | 998.8 |
| 20260504234350 | 71 | 37 | 4.0 | 14.0 | 0.00 | 0.00 | 0.00 | 24 | 998.8 |
| 20260504233852 | 71 | 36 | 4.0 | 14.0 | 0.00 | 0.00 | 0.00 | 24 | 998.5 |
| 20260504233344 | 72 | 344 | 5.0 | 14.0 | 0.00 | 0.00 | 0.00 | 24 | 998.5 |
| 20260504232839 | 72 | 319 | 5.0 | 15.0 | 0.00 | 0.00 | 0.00 | 24 | 998.5 |
| 20260504232555 | 72 | 13 | 5.0 | 16.0 | 0.00 | 0.00 | 0.00 | 23 | 998.4 |
| 20260504231822 | 72 | 0 | 5.0 | 18.0 | 0.00 | 0.00 | 0.00 | 23 | 998.4 |
| 20260504231318 | 72 | 309 | 6.0 | 18.0 | 0.00 | 0.00 | 0.00 | 24 | 998.4 |
| 20260504230810 | 73 | 311 | 7.0 | 16.0 | 0.00 | 0.00 | 0.00 | 23 | 998.3 |
| 20260504230305 | 73 | 21 | 7.0 | 16.0 | 0.00 | 0.00 | 0.00 | 23 | 998.3 |
| 20260504230018 | 74 | 350 | 6.0 | 15.0 | 0.00 | 0.00 | 0.00 | 23 | 998.4 |
| 20260504225248 | 74 | 355 | 5.0 | 15.0 | 0.00 | 0.00 | 0.00 | 22 | 997.9 |
| 20260504224741 | 74 | 355 | 4.0 | 15.0 | 0.00 | 0.00 | 0.00 | 22 | 998.0 |
| 20260504224235 | 75 | 26 | 5.0 | 14.0 | 0.00 | 0.00 | 0.00 | 23 | 998.0 |
| 20260504223722 | 75 | 0 | 5.0 | 14.0 | 0.00 | 0.00 | 0.00 | 22 | 997.9 |
| 20260504223445 | 75 | 13 | 5.0 | 14.0 | 0.00 | 0.00 | 0.00 | 22 | 997.9 |
| 20260504222711 | 75 | 347 | 6.0 | 16.0 | 0.00 | 0.00 | 0.00 | 23 | 997.9 |
| 20260504222204 | 75 | 35 | 6.0 | 17.0 | 0.00 | 0.00 | 0.00 | 22 | 997.5 |
| 20260504221913 | 76 | 22 | 6.0 | 15.0 | 0.00 | 0.00 | 0.00 | 22 | 997.6 |
| 20260504221148 | 76 | 24 | 6.0 | 15.0 | 0.00 | 0.00 | 0.00 | 22 | 997.6 |
| 20260504220642 | 76 | 294 | 6.0 | 13.0 | 0.00 | 0.00 | 0.00 | 21 | 997.3 |
| 20260504220350 | 77 | 35 | 5.0 | 15.0 | 0.00 | 0.00 | 0.00 | 23 | 997.4 |
| 20260504215630 | 77 | 31 | 4.0 | 15.0 | 0.00 | 0.00 | 0.00 | 22 | 997.4 |
| 20260504215120 | 78 | 339 | 4.0 | 13.0 | 0.00 | 0.00 | 0.00 | 24 | 996.9 |
| 20260504214838 | 78 | 33 | 4.0 | 13.0 | 0.00 | 0.00 | 0.00 | 22 | 997.0 |
| 20260504214107 | 78 | 16 | 5.0 | 12.0 | 0.00 | 0.00 | 0.00 | 24 | 997.0 |
| 20260504213607 | 78 | 355 | 4.0 | 13.0 | 0.00 | 0.00 | 0.00 | 23 | 997.0 |
| 20260504213100 | 78 | 9 | 4.0 | 13.0 | 0.00 | 0.00 | 0.00 | 24 | 997.0 |
| 20260504212811 | 78 | 260 | 4.0 | 12.0 | 0.00 | 0.00 | 0.00 | 23 | 997.0 |
| 20260504212048 | 78 | 5 | 5.0 | 12.0 | 0.00 | 0.00 | 0.00 | 24 | 996.8 |
| 20260504211542 | 78 | 284 | 5.0 | 12.0 | 0.00 | 0.00 | 0.00 | 25 | 996.8 |
| 20260504211303 | 79 | 13 | 4.0 | 12.0 | 0.00 | 0.00 | 0.00 | 25 | 996.8 |
| 20260504210531 | 79 | 351 | 3.0 | 10.0 | 0.00 | 0.00 | 0.00 | 25 | 996.8 |
| 20260504210020 | 80 | 340 | 3.0 | 10.0 | 0.00 | 0.00 | 0.00 | 25 | 996.8 |
| 20260504205519 | 79 | 311 | 4.0 | 10.0 | 0.00 | 0.00 | 0.00 | 27 | 996.8 |
| 20260504205008 | 79 | 290 | 4.0 | 10.0 | 0.00 | 0.00 | 0.00 | 25 | 996.6 |
| 20260504204506 | 80 | 336 | 3.0 | 10.0 | 0.00 | 0.00 | 0.00 | 26 | 996.6 |
| 20260504204222 | 80 | 317 | 3.0 | 10.0 | 0.00 | 0.00 | 0.00 | 26 | 996.6 |
| 20260504203450 | 79 | 286 | 4.0 | 13.0 | 0.00 | 0.00 | 0.00 | 27 | 996.4 |
| 20260504202949 | 80 | 355 | 4.0 | 14.0 | 0.00 | 0.00 | 0.00 | 26 | 996.4 |
| 20260504202442 | 80 | 11 | 4.0 | 14.0 | 0.00 | 0.00 | 0.00 | 25 | 996.4 |
| 20260504201936 | 80 | 17 | 3.0 | 14.0 | 0.00 | 0.00 | 0.00 | 27 | 996.7 |
| 20260504201430 | 80 | 24 | 4.0 | 15.0 | 0.00 | 0.00 | 0.00 | 28 | 996.7 |
| 20260504200927 | 79 | 277 | 5.0 | 19.0 | 0.00 | 0.00 | 0.00 | 25 | 996.7 |
| 20260504200428 | 79 | 346 | 4.0 | 19.0 | 0.00 | 0.00 | 0.00 | 24 | 996.3 |
| 20260504195928 | 79 | 305 | 4.0 | 10.0 | 0.00 | 0.00 | 0.00 | 25 | 996.3 |
| 20260504195429 | 79 | 290 | 4.0 | 10.0 | 0.00 | 0.00 | 0.00 | 23 | 996.3 |
| 20260504194927 | 80 | 346 | 3.0 | 10.0 | 0.00 | 0.00 | 0.00 | 24 | 996.3 |
| 20260504194428 | 81 | 346 | 2.0 | 9.0 | 0.00 | 0.00 | 0.00 | 23 | 996.3 |
| 20260504193929 | 81 | 271 | 3.0 | 9.0 | 0.00 | 0.00 | 0.00 | 21 | 996.3 |
| 20260504193413 | 82 | 210 | 3.0 | 10.0 | 0.00 | 0.00 | 0.00 | 21 | 996.3 |
| 20260504192913 | 81 | 282 | 3.0 | 10.0 | 0.00 | 0.00 | 0.00 | 20 | 996.3 |
| 20260504192411 | 81 | 274 | 3.0 | 9.0 | 0.00 | 0.00 | 0.00 | 23 | 996.2 |
| 20260504191911 | 81 | 5 | 3.0 | 9.0 | 0.00 | 0.00 | 0.00 | 20 | 996.3 |
| 20260504191411 | 81 | 260 | 4.0 | 12.0 | 0.00 | 0.00 | 0.00 | 22 | 996.3 |
| 20260504190910 | 81 | 311 | 4.0 | 12.0 | 0.00 | 0.00 | 0.00 | 21 | 996.3 |
| 20260504190409 | 81 | 225 | 4.0 | 12.0 | 0.00 | 0.00 | 0.00 | 22 | 996.3 |
| 20260504185910 | 81 | 209 | 3.0 | 11.0 | 0.00 | 0.00 | 0.00 | 22 | 996.3 |
| 20260504185412 | 80 | 327 | 3.0 | 9.0 | 0.00 | 0.00 | 0.00 | 22 | 996.3 |
| 20260504184910 | 80 | 0 | 4.0 | 13.0 | 0.00 | 0.00 | 0.00 | 22 | 996.4 |
| 20260504184409 | 80 | 344 | 4.0 | 13.0 | 0.00 | 0.00 | 0.00 | 20 | 996.4 |
| 20260504183910 | 80 | 17 | 4.0 | 14.0 | 0.00 | 0.00 | 0.00 | 22 | 996.3 |
| 20260504183632 | 79 | 355 | 5.0 | 14.0 | 0.00 | 0.00 | 0.00 | 21 | 996.6 |
| 20260504182902 | 80 | 290 | 5.0 | 13.0 | 0.00 | 0.00 | 0.00 | 22 | 996.6 |
| 20260504182356 | 80 | 269 | 3.0 | 13.0 | 0.00 | 0.00 | 0.00 | 22 | 996.6 |
| 20260504181846 | 80 | 324 | 3.0 | 9.0 | 0.00 | 0.00 | 0.00 | 23 | 996.6 |
| 20260504181344 | 79 | 258 | 4.0 | 12.0 | 0.00 | 0.00 | 0.00 | 23 | 996.6 |
| 20260504180838 | 79 | 223 | 3.0 | 12.0 | 0.00 | 0.00 | 0.00 | 23 | 996.7 |
| 20260504180332 | 79 | 259 | 3.0 | 10.0 | 0.00 | 0.00 | 0.00 | 23 | 996.7 |
| 20260504175826 | 79 | 19 | 3.0 | 10.0 | 0.00 | 0.00 | 0.00 | 24 | 996.7 |
| 20260504175534 | 79 | 274 | 2.0 | 5.0 | 0.00 | 0.00 | 0.00 | 25 | 996.8 |
| 20260504175033 | 79 | 319 | 3.0 | 10.0 | 0.00 | 0.00 | 0.00 | 25 | 996.8 |
| 20260504174518 | 78 | 259 | 4.0 | 10.0 | 0.00 | 0.00 | 0.00 | 25 | 996.7 |
| 20260504174401 | 78 | 34 | 3.0 | 10.0 | 0.00 | 0.00 | 0.00 | 26 | 996.7 |
| 20260504173311 | 78 | 339 | 4.0 | 12.0 | 0.00 | 0.00 | 0.00 | 24 | 996.7 |
| 20260504172812 | 78 | 268 | 4.0 | 12.0 | 0.00 | 0.00 | 0.00 | 27 | 996.7 |
| 20260504172309 | 78 | 340 | 4.0 | 11.0 | 0.00 | 0.00 | 0.00 | 24 | 996.8 |
| 20260504172025 | 79 | 259 | 3.0 | 10.0 | 0.00 | 0.00 | 0.00 | 26 | 996.8 |
| 20260504171307 | 78 | 238 | 3.0 | 8.0 | 0.00 | 0.00 | 0.00 | 26 | 996.8 |
| 20260504170807 | 78 | 272 | 3.0 | 12.0 | 0.00 | 0.00 | 0.00 | 27 | 996.6 |
| 20260504170307 | 78 | 313 | 3.0 | 12.0 | 0.00 | 0.00 | 0.00 | 26 | 996.6 |
| 20260504150706 | 68 | 247 | 3.0 | 9.0 | 0.00 | 0.00 | 0.00 | 44 | 996.2 |
| 20260504150209 | 67 | 305 | 3.0 | 6.0 | 0.00 | 0.00 | 0.00 | 45 | 996.1 |
| 20260504141151 | 64 | 238 | 2.0 | 6.0 | 0.00 | 0.00 | 0.00 | 47 | 995.9 |
| 20260504140646 | 63 | 196 | 3.0 | 7.0 | 0.00 | 0.00 | 0.00 | 48 | 996.3 |
| 20260504140133 | 63 | 215 | 5.0 | 10.0 | 0.00 | 0.00 | 0.00 | 47 | 996.2 |
| 20260504130522 | 57 | 202 | 0.0 | 3.0 | 0.00 | 0.00 | 0.00 | 58 | 995.9 |
| 20260504120311 | 48 | 290 | 0.0 | 0.0 | 0.00 | 0.00 | 0.00 | 75 | 995.4 |
| 20260504110635 | 47 | 0 | 0.0 | 0.0 | 0.00 | 0.00 | 0.00 | 72 | 995.3 |
| 20260504110138 | 47 | 0 | 0.0 | 0.0 | 0.00 | 0.00 | 0.00 | 72 | 995.3 |
| 20260504100413 | 49 | 0 | 0.0 | 0.0 | 0.00 | 0.00 | 0.00 | 64 | 995.9 |
| 20260504081602 | 51 | 0 | 0.0 | 0.0 | 0.00 | 0.00 | 0.00 | 62 | 997.4 |
| 20260504081053 | 51 | 0 | 0.0 | 0.0 | 0.00 | 0.00 | 0.00 | 63 | 997.4 |
| 20260504080537 | 51 | 0 | 0.0 | 0.0 | 0.00 | 0.00 | 0.00 | 63 | 997.7 |
| 20260504070120 | 52 | 0 | 0.0 | 0.0 | 0.00 | 0.00 | 0.00 | 60 | 998.9 |
| 20260504050241 | 58 | 219 | 0.0 | 0.0 | 0.00 | 0.00 | 0.00 | 50 | 1000.4 |
| 20260504045737 | 58 | 219 | 0.0 | 0.0 | 0.00 | 0.00 | 0.00 | 49 | 1000.4 |
| 20260504045207 | 58 | 219 | 0.0 | 0.0 | 0.00 | 0.00 | 0.00 | 48 | 1000.7 |
| 20260504044901 | 58 | 219 | 0.0 | 0.0 | 0.00 | 0.00 | 0.00 | 48 | 1000.7 |
| 20260504044311 | 57 | 219 | 0.0 | 0.0 | 0.00 | 0.00 | 0.00 | 48 | 1000.7 |
| 20260504043538 | 57 | 219 | 0.0 | 0.0 | 0.00 | 0.00 | 0.00 | 49 | 1000.7 |
| 20260504043026 | 57 | 219 | 0.0 | 0.0 | 0.00 | 0.00 | 0.00 | 49 | 1000.7 |
| 20260504042524 | 58 | 219 | 0.0 | 0.0 | 0.00 | 0.00 | 0.00 | 48 | 1000.7 |
| 20260504042459 | 58 | 219 | 0.0 | 1.0 | 0.00 | 0.00 | 0.00 | 46 | 1000.8 |
| 20260504041728 | 59 | 219 | 0.0 | 1.0 | 0.00 | 0.00 | 0.00 | 45 | 1000.9 |
| 20260504041004 | 60 | 219 | 0.0 | 1.0 | 0.00 | 0.00 | 0.00 | 44 | 1000.9 |
| 20260504040501 | 61 | 219 | 0.0 | 0.0 | 0.00 | 0.00 | 0.00 | 42 | 1001.2 |
| 20260504040222 | 62 | 219 | 0.0 | 0.0 | 0.00 | 0.00 | 0.00 | 40 | 1001.2 |
| 20260504035714 | 62 | 219 | 0.0 | 0.0 | 0.00 | 0.00 | 0.00 | 38 | 1001.2 |
| 20260504034946 | 62 | 219 | 0.0 | 0.0 | 0.00 | 0.00 | 0.00 | 38 | 1001.5 |
| 20260504034443 | 62 | 219 | 0.0 | 0.0 | 0.00 | 0.00 | 0.00 | 38 | 1001.5 |
| 20260504034159 | 62 | 219 | 0.0 | 0.0 | 0.00 | 0.00 | 0.00 | 38 | 1001.5 |
| 20260504033426 | 62 | 219 | 0.0 | 0.0 | 0.00 | 0.00 | 0.00 | 37 | 1001.6 |
| 20260504033136 | 63 | 219 | 0.0 | 2.0 | 0.00 | 0.00 | 0.00 | 37 | 1001.7 |
| 20260504032408 | 63 | 219 | 1.0 | 3.0 | 0.00 | 0.00 | 0.00 | 35 | 1001.7 |
| 20260504031904 | 62 | 219 | 0.0 | 3.0 | 0.00 | 0.00 | 0.00 | 35 | 1001.8 |
| 20260504031352 | 63 | 219 | 0.0 | 0.0 | 0.00 | 0.00 | 0.00 | 36 | 1001.9 |
| 20260504030838 | 63 | 219 | 0.0 | 1.0 | 0.00 | 0.00 | 0.00 | 35 | 1002.5 |
| 20260504030328 | 64 | 219 | 1.0 | 4.0 | 0.00 | 0.00 | 0.00 | 33 | 1002.5 |
| 20260504025812 | 63 | 219 | 2.0 | 8.0 | 0.00 | 0.00 | 0.00 | 34 | 1002.5 |
| 20260504025304 | 62 | 223 | 1.0 | 8.0 | 0.00 | 0.00 | 0.00 | 35 | 1002.4 |